Regional Weather Roundup
Issued by NWS

Home | Current Version | Previous Version | Text Only | Print | Product List | Glossary On
Versions: 1 2 3 4 5 6 7 8 9 10 11 12 13 14 15 16 17 18 19 20 21 22 23 24 25 26 27 28 29 30 31 32 33 34 35 36 37 38 39 40 41 42 43 44 45 46 47 48 49 50
000
ASUS44 KBMX 232310
RWRAL

ALABAMA REGIONAL WEATHER ROUNDUP
NATIONAL WEATHER SERVICE BIRMINGHAM AL
600 PM CDT MON APR 23 2018

NOTE: "FAIR" INDICATES FEW OR NO CLOUDS BELOW 12,000 FEET
WITH NO SIGNIFICANT WEATHER AND/OR OBSTRUCTIONS TO VISIBILITY.

THE REMARK "TC" DENOTES TEMPERATURE IN DEGREES CELSIUS.

ALZ001>011-014-016>018-020-240000-
NORTH ALABAMA

CITY           SKY/WX    TMP DP  RH WIND       PRES   REMARKS
MUSCLE SHOALS  LGT RAIN  63  55  75 N5        29.88R
HUNTSVILLE     CLOUDY    62  60  93 E7        29.87S
DECATUR        FAIR      62  60  93 E5        29.87R
HALEYVILLE     PTSUNNY   65  56  72 W7        29.89R
GADSDEN        PTSUNNY   66  61  84 N3        29.87S
$$

ALZ012-013-022-023-030>036-040>044-240000-
WEST CENTRAL ALABAMA

CITY           SKY/WX    TMP DP  RH WIND       PRES   REMARKS
TUSCALOOSA     FAIR      68  55  63 W9        29.87S
DEMOPOLIS      CLOUDY    65  52  61 W9        29.90R
$$

ALZ015-024>026-033>036-041>044-240000-
CENTRAL ALABAMA

CITY           SKY/WX    TMP DP  RH WIND       PRES   REMARKS
BIRMINGHAM     FAIR      68  56  65 W8        29.88S
MONTGOMERY     FAIR      71  56  58 W12       29.86R
SHELBY CO ARPT FAIR      67  55  65 VRB5      29.86S
MAXWELL AFB    FAIR      67  53  61 W5        29.85R
GREENVILLE     FAIR      70  52  52 W7        29.87R
SELMA          FAIR      68  48  49 W10       29.88S
PRATTVILLE     FAIR      69  54  60 W12G17    29.87R
BESSEMER       MOCLDY    67  54  63 W8        29.88R
TALLADEGA      CLOUDY    69  60  75 CALM      29.86S
PELL CITY      PTCLDY    70  61  73 CALM      29.86S
MARION         FAIR      67  52  58 W9        29.88S
SYLACAUGA      PTSUNNY   70  58  66 W10       29.85S
$$

ALZ019-021-028-029-037-038-045>048-240000-
EAST CENTRAL ALABAMA

CITY           SKY/WX    TMP DP  RH WIND       PRES   REMARKS
ANNISTON       CLOUDY    70  57  63 W6        29.86S
ALEXANDER CITY FAIR      71  60  68 SW9       29.85S
AUBURN         PTSUNNY   74  61  63 W10       29.85R
$$

ALZ051>064-240000-
SOUTHWEST ALABAMA

CITY           SKY/WX    TMP DP  RH WIND       PRES   REMARKS
MOBILE         FAIR      69  53  56 W8        29.92R
BROOKLEY FIELD FAIR      71  56  58 W6        29.92R
EVERGREEN      PTSUNNY   70  53  54 VRB7      29.89R
$$

ALZ049-050-065>069-240000-
SOUTHEAST ALABAMA

CITY           SKY/WX    TMP DP  RH WIND       PRES   REMARKS
DOTHAN         FAIR      76  50  40 SW16      29.87S
OZARK          SUNNY     76  50  38 S15       29.84R
TROY           FAIR      73  55  53 W8        29.86R
EUFAULA        FAIR      79  58  48 VRB3      29.81R
$$



USA.gov is the U.S. government's official web portal to all federal, state and local government web resources and services.